{"data":{"norad_id":59205,"epoch":"2026-09-20T10:46:45.784128Z","epoch_age_seconds":163184,"freshness":"FRESH","line1":"1 59205U 24046E   26263.44914102 -.00000394  00000+0 -52115-6 0  9998","line2":"2 59205  53.1598 329.6044 0001361  56.9144 303.1989 15.34389722142882","mean_motion":15.34389722,"eccentricity":0.0001361,"inclination_deg":53.1598,"raan_deg":329.6044,"arg_perigee_deg":56.9144,"mean_anomaly_deg":303.1989,"bstar":-5.2115e-7,"rev_number":14288,"period_min":93.848386713842,"perigee_km":461.80274624527,"apogee_km":463.66483127397,"semimajor_km":6840.8707887596,"source":"CELESTRAK","updated_at":"2026-09-21T09:00:34.068600Z"}}